Regional Weather Roundup
Issued by NWS Sterling, VA

Home | Current Version | Previous Version | Text Only | Print | Product List | Glossary Off
Versions: 1 2 3 4 5 6 7 8 9 10 11 12 13 14 15 16 17 18 19 20 21 22 23 24 25 26 27 28 29 30 31 32 33 34 35 36 37 38 39 40 41 42 43 44 45 46 47 48 49 50

000
ASUS41 KLWX 300210
RWRLWX

REGIONAL WEATHER ROUNDUP
NATIONAL WEATHER SERVICE BALTIMORE MD/WASHINGTON DC
1000 PM EDT TUE JUL 29 2014

Note: "FAIR" indicates few or no clouds below 12,000 feet
with no significant weather and/or obstructions to visibility.
 TC=TEMPERATURE CELSIUS

 * =Non NWS site. Station does not report precipitation (e.g. rain,
    snow, etc.), thunder, or fog.

DCZ001-MDZ009-015-VAZ040>042-051-053>054-300300-
WASHINGTON METRO
  /KDAA//-FT BELVOIR

CITY           SKY/WX    TMP DP  RH WIND       PRES   REMARKS
WASHINGTON NAT MOCLDY    69  48  47 NW7       30.02R
DULLES         CLEAR     61  47  59 W5        30.02R
ANDREWS AFB    CLEAR     67  49  54 NW1       30.01R
QUANTICO       PTCLDY    64  54  69 NW7       30.03R
COLLEGE PARK*  CLEAR     63  54  72 CALM      30.01R
LEESBURG*      CLEAR     61  54  77 CALM      30.03R
GAITHERSBURG*  CLEAR     57  52  82 CALM      30.05R

$$

MDZ006>007-011-014-300300-
BALTIMORE METRO

CITY           SKY/WX    TMP DP  RH WIND       PRES   REMARKS
BWI AIRPORT    PTCLDY    64  52  64 CALM      29.99R
MD SCIENCE CTR   N/A     70  52  52 MISG      30.00R
MARTIN STATE   PTCLDY    66  59  77 NW6       30.01R
ANNAPOLIS      CLEAR     70  55  59 N6        30.00R
FORT MEADE*    CLEAR     59  54  82 CALM      30.02R

$$

MDZ012-015-019>023-300300-
MARYLAND EASTERN SHORE

CITY           SKY/WX    TMP DP  RH WIND       PRES   REMARKS
OCEAN CITY     CLEAR     57  55  93 CALM      30.00R
SALISBURY      NOT AVBL
BAY BRIDGE AP*   N/A     70  52  52 NW8       29.99R
CAMBRIDGE*     CLEAR     63  54  72 CALM      29.99R

$$

MDZ017>025-300300-
SOUTHERN MARYLAND

CITY           SKY/WX    TMP DP  RH WIND       PRES   REMARKS
PATUXENT RIVER PTCLDY    66  51  58 W7        30.00R
ST INIGOES     CLEAR     68  48  48 NW5       30.00R
LEONARDTOWN*   CLEAR     61  50  67 W3        30.02R

$$

MDZ003>005-300300-
NORTH CENTRAL MARYLAND

CITY           SKY/WX    TMP DP  RH WIND       PRES   REMARKS
FREDERICK*     CLEAR     57  57 100 CALM      30.04R
HAGERSTOWN APT CLEAR     64  48  56 CALM      30.03R
WESTMINSTER*   CLEAR     63  57  82 CALM      30.02R

$$

MDZ501>502-300300-
WESTERN MARYLAND

CITY           SKY/WX    TMP DP  RH WIND       PRES   REMARKS
OAKLAND*       CLEAR     52  52 100 W3        30.09R
CUMBERLAND*    MOCLDY    61  48  63 N3        30.08R

$$

VAZ025>031-300300-
SHENANDOAH VALLEY

CITY           SKY/WX    TMP DP  RH WIND       PRES   REMARKS
WINCHESTER*    CLEAR     61  48  63 W3        30.04R
STAUNTON*      PTCLDY    63  51  65 CALM      30.08R

$$

WVZ021-048>050-054>055-300300-
EASTERN WEST VIRGINIA PANHANDLE

CITY           SKY/WX    TMP DP  RH WIND       PRES   REMARKS
MARTINSBURG    MOCLDY    59  50  72 CALM      30.03R
PETERSBURG*    CLEAR     54  48  80 CALM      30.07R

$$

VAZ036>039-050-300300-
CENTRAL FOOTHILLS

CITY           SKY/WX    TMP DP  RH WIND       PRES   REMARKS
CHARLOTTESVILL MOCLDY    66  54  65 CALM      30.03R
ORANGE*        CLOUDY    64  50  59 CALM      30.05R

$$

VAZ055>057-300300-
NORTH AND CENTRAL PIEDMONT

CITY           SKY/WX    TMP DP  RH WIND       PRES   REMARKS
FREDERICKSBRG* PTCLDY    65  55  69 CALM      30.02R
STAFFORD*      MOCLDY    58  58 100 NW5       30.06R

$$

NCZ024-NYZ072-PAZ021-071-VAZ022-071-300300-
OTHER REGIONAL OBSERVATIONS

CITY           SKY/WX    TMP DP  RH WIND       PRES   REMARKS
NEW YORK CITY  PTCLDY    70  50  49 VRB3      29.99R
PHILADELPHIA   CLOUDY    72  54  53 NW8       29.98R
PITTSBURGH     CLEAR     60  52  74 SW3       30.04R
ROANOKE        PTCLDY    68  51  54 N3        30.06R
RICHMOND       MOCLDY    72  56  57 NE8       30.01R
RALEIGH        PTCLDY    68  61  78 CALM      29.99R

$$

ANZ530>537-300300-
MARINE OBSERVATIONS

STATION/POSITION TIME  TEMP    WIND        PRES
                       AIR SEA DIR/SP/G
                 (UTC) (F)     (DEG/KT/KT) (MB)
THOMAS PT LIGHT  0200   71 78  350/ 12/ 14 1016.0R
BALT KEY BRIDGE  0200   71     330/ 10/ 13 1015.2R
COVE POINT       0200   69     320/  7/  8 1015.7R
LEWISETTA        0200   72 78  350/ 10/ 13 1015.8R
SOLOMONS ISLAND  0200      80                N/A
PINEY POINT      0200           10/  8/  9   N/A

$$



USA.gov is the U.S. government's official web portal to all federal, state and local government web resources and services.